Weather Roundup
Issued by NWS Chicago, IL

Home | Current Version | Previous Version | Graphics & Text | Print | Product List | Glossary On
Versions: 1 2 3 4 5 6 7 8 9 10 11 12 13 14 15 16 17 18 19 20 21 22 23 24 25 26 27 28 29 30 31 32 33 34 35 36 37 38 39 40 41 42 43 44 45 46 47 48 49 50
000
NZUS59 KLOT 280209
HRRLOT

CHICAGO AREA WEATHER ROUNDUP
NATIONAL WEATHER SERVICE CHICAGO/ROMEOVILLE IL
900 PM CDT THU JUL 27 2017

NOTE: "FAIR" INDICATES FEW OR NO CLOUDS BELOW 12,000 FEET WITH NO
SIGNIFICANT WEATHER AND/OR OBSTRUCTIONS TO VISIBILITY.

* THESE STATIONS ARE NOT UNDER NWS QUALITY CONTROL. THEY ALSO MAY NOT
  REPORT WEATHER SUCH AS PRECIPITATION OR FOG.

ILZ005-006-012>014-019>023-280300-
NORTHEAST ILLINOIS

CITY           SKY/WX    TMP DP  RH WIND       PRES   REMARKS
OHARE          PTCLDY    72  56  57 N12       29.94F
MIDWAY         PTCLDY    72  62  71 N14       29.93F
AURORA         CLEAR     67  57  70 N9        29.95S
LANSING*       CLEAR     70  63  78 N7        29.94R
JOLIET*        CLEAR     74  58  57 N9        29.93S
WAUKEGAN       CLEAR     69  59  70 N10G18    29.95S
DUPAGE AIRPORT CLEAR     67  56  67 N10       29.95R
WHEELING       CLEAR     70  57  63 N8        29.96F
MORRIS*        CLEAR     69  60  72 CALM      29.92F
LEWIS AIRPORT* CLEAR     71  56  59 NE12      29.94S
$$

WIZ051-052-058>065-066-070>072-280300-
SOUTHEAST WISCONSIN

CITY           SKY/WX    TMP DP  RH WIND       PRES   REMARKS
MILWAUKEE      MOCLDY    71  60  68 N13       29.96F
KENOSHA*       CLEAR     69  56  62 N9        29.97S
RACINE*        PTCLDY    68  62  81 N12       29.98S
WAUKESHA       CLEAR     68  55  64 NE7       29.99F
WEST BEND      PTCLDY    68  55  64 N7        30.00S
$$

INZ001>003-010>013-019-020-280300-
NORTHWEST INDIANA

CITY           SKY/WX    TMP DP  RH WIND       PRES   REMARKS
GARY*          PTCLDY    72  64  78 N16       29.93F
MICHIGAN CITY* NOT AVBL
RENSSELAER*    NOT AVBL
VALPARAISO     CLEAR     72  67  84 N8        29.92S
$$

LMZ740>746-280300-
SOUTHERN LAKE MICHIGAN

STATION/POSITION TIME  SKY/WX   TEMP WIND        PRES    VSBY
                                AIR  DIR/SP/G
                 (UTC)          (F)  (DEG/KT/KT) (MB)    (MI)
HARRISON CRIB    0140            72  360/ 17/ 20   N/A
BURNHAM HARBOR   0200            71                N/A
CALUMET HARBOR   0130            71  340/ 12/ 18 1013.2F
BURNS HARBOR     0140            73   10/ 15/ 20 1013.5F
MICHIGAN CITY    0140            73   20/ 18/ 20   N/A
$$

ABBREVIATIONS USED IN REMARKS
   TC - TEMPERATURE IN CELSIUS
  WCI - WIND CHILL INDEX
   HX - HEAT INDEX
  VSB - VISIBILITY
$$




USA.gov is the U.S. government's official web portal to all federal, state and local government web resources and services.